Regional Weather Roundup
Issued by NWS Boston, MA

Home | Current Version | Previous Version | Text Only | Print | Product List | Glossary On
Versions: 1 2 3 4 5 6 7 8 9 10 11 12 13 14 15 16 17 18 19 20 21 22 23 24 25 26 27
000
ASUS41 KBOX 200210
RWRBOX

REGIONAL WEATHER ROUNDUP
NATIONAL WEATHER SERVICE TAUNTON MA
900 PM EST SUN NOV 19 2017

NOTE:  "FAIR" INDICATES FEW OR NO CLOUDS BELOW 12,000 FEET WITH NO
SIGNIFICANT WEATHER AND/OR OBSTRUCTIONS TO VISIBILITY.

MAZALL-200300-
EASTERN MASSACHUSETTS

CITY           SKY/WX    TMP DP  RH WIND       PRES   REMARKS
BOSTON         PTCLDY    40  23  50 W24G35    29.59R WCI  29
BEVERLY        MOCLDY    38  25  59 W6        29.58R
LAWRENCE       PTCLDY    40  22  48 W10G21    29.60R
BEDFORD        MOCLDY    38  21  50 W8        29.59R
BLUE HILL      NOT AVBL
NORWOOD        PTCLDY    41  24  51 W14G23    29.60R
MARSHFIELD     PTCLDY    39  27  60 W8G17     29.59R
PLYMOUTH       CLEAR     40  24  53 W15G23    29.60R WCI  32
TAUNTON        CLEAR     39  24  55 W12G24    29.61R WCI  32
NEW BEDFORD    CLEAR     39  24  55 W13G22    29.62R WCI  31
$$

MAZALL-200300-
CAPE COD AND THE ISLANDS

CITY           SKY/WX    TMP DP  RH WIND       PRES   REMARKS
FALMOUTH       CLEAR     39  23  52 W18G29    29.63R WCI  30
HYANNIS        CLEAR     40  25  55 W13G22    29.59R
CHATHAM        CLEAR     40  28  62 W12G24    29.61R
PROVINCETOWN   MOCLDY    41  28  60 W20G35    29.58R WCI  32
NANTUCKET      CLEAR     41  31  67 W15G26    29.62R
MARTHAS VNYRD  PTCLDY    41  25  53 W20G35    29.63R WCI  32
$$

MAZALL-200300-
CENTRAL AND WESTERN MASSACHUSETTS

CITY           SKY/WX    TMP DP  RH WIND       PRES   REMARKS
WORCESTER      CLOUDY    35  21  56 W17G24    29.59R WCI  25
FITCHBURG      CLOUDY    40  24  53 W9G22     29.61R
ORANGE         CLOUDY    36  24  62 W8        29.61R WCI  30
SPRINGFIELD    PTCLDY    37  24  57 W12G22    29.64R WCI  30
WESTFIELD      CLEAR     37  25  61 W15G21    29.66R WCI  28
NORTH ADAMS    PTCLDY    34  24  67 W15G24    29.62R WCI  24
PITTSFIELD     PTCLDY    33  24  69 W15       29.62R WCI  23
$$

RIZALL-200300-
RHODE ISLAND

CITY           SKY/WX    TMP DP  RH WIND       PRES   REMARKS
PROVIDENCE     PTCLDY    40  25  55 W21G29    29.63R WCI  30
NEWPORT        CLEAR     40  26  57 W14       29.64R
BLOCK ISLAND   MOCLDY    43  28  55 NW12G24   29.67R
SMITHFIELD     CLEAR     37  24  59 W16G25    29.61R WCI  28
WESTERLY       CLEAR     42  26  53 W7        29.67R
$$

CTZALL-200300-
CONNECTICUT

CITY           SKY/WX    TMP DP  RH WIND       PRES   REMARKS
BRADLEY INTL   PTCLDY    38  24  57 W13       29.67R WCI  30
HARTFORD       CLEAR     41  24  51 W3        29.68R
BRIDGEPORT     CLEAR     42  25  50 W15G23    29.70R
DANBURY        PTCLDY    40  25  55 W9        29.71R
GROTON         PTCLDY    42  26  53 W13       29.67R
NEW HAVEN      CLEAR     43  23  45 W7        29.70R
CHESTER        FAIR      39  25  56 W5G12     29.67R
MERIDEN        CLEAR     40  24  53 W7        29.69R
WILLIMANTIC    CLEAR     42  25  50 W12G20    29.67R
OXFORD         CLEAR     37  22  54 W8        29.68R WCI  31
$$

MEZ002-015-021-024-NHZ003-005-008-011-012-014-VTZ005-008-200300-
NORTHERN NEW ENGLAND

CITY           SKY/WX    TMP DP  RH WIND       PRES   REMARKS
PORTLAND ME    CLEAR     34  21  59 W13G18    29.51R WCI  25
BANGOR ME      MOCLDY    33  20  58 W14G22    29.39R WCI  23
CONCORD NH     PTCLDY    34  22  61 W15G21    29.57R WCI  24
MANCHESTER NH  MOCLDY    37  22  54 NW8       29.57R WCI  31
NASHUA NH      PTCLDY    37  20  50 W8        29.59R WCI  31
PORTSMOUTH NH  MOCLDY    37  22  54 W17G23    29.54R WCI  27
JAFFREY NH     CLOUDY    35  23  61 W8        29.57R WCI  29
KEENE NH       MOCLDY    36  22  56 W7        29.60R WCI  30
BURLINGTON VT  CLOUDY    33  23  66 W13G22    29.60R WCI  24
MT. WASHINGTON SNOWSHWR   7   7 100 W76G85      N/A  VSB 0   WCI -26
$$

NYZ052-076-200300-
EASTERN NEW YORK

CITY           SKY/WX    TMP DP  RH WIND       PRES   REMARKS
ALBANY         MOCLDY    35  26  69 W12       29.68R WCI  27
NEW YORK CITY  CLOUDY    46  27  47 W14G23    29.73R
$$

ANZALL-200300-
MARINE OBSERVATIONS

STATION/POSITION TIME  TEMP    WIND        PRES    VSBY  WAVE
                       AIR SEA DIR/SP/G                  HT/PER
                 (UTC) (F)     (DEG/KT/KT) (MB)    (MI)  (FT/S)
BOSTON BUOY      0150   42 51  290/ 19/ 25 1000.1R         3/ 4
BUZZARDS BAY     0100   43     290/ 30/ 35 1002.7R
NANTUCKET SOUND  0150   43 50  290/ 25/ 31 1002.0R         4/ 4
MASS BAY-STELLWA 0104   42 50  290/ 29/ 37  999.6R         4/ 5
ISLE OF SHOALS   0100   39     270/ 29/ 33  998.6R
S OF BLOCK IS    NOT AVBL
$$

......................KEY.........................
  SKY/WX - SKY CONDITION/PRESENT WEATHER
  TMP    - TEMPERATURE IN FAHRENHEIT
  DWPT   - DEWPOINT IN FAHRENHEIT
  RH     - RELATIVE HUMIDITY IN PERCENT
  WIND   - DIRECTION AND SPEED IN MPH
  PRES   - MEAN SEA LEVEL PRESSURE IN INCHES OF HG
  WCI    - WIND CHILL INDEX
  VSB    - VISIBILITY IN MILES
  HX     - HEAT INDEX
  TC     - TEMPERATURE IN CELSIUS
  VRB    - VARIABLE WIND DIRECTION
  N/A    - NOT AVAILABLE




USA.gov is the U.S. government's official web portal to all federal, state and local government web resources and services.